TimeCDT,TemperatureF,Dew PointF,Humidity,Sea Level PressureIn,VisibilityMPH,Wind Direction,Wind SpeedMPH,Gust SpeedMPH,PrecipitationIn,Events,Conditions,WindDirDegrees,DateUTC
12:15 AM,34.0,27.0,75,30.16,10.0,NNE,11.5,16.1,N/A,,Mostly Cloudy,20,2013-04-05 05:15:00
12:35 AM,33.4,26.4,75,30.17,10.0,NNE,9.2,-,N/A,,Mostly Cloudy,20,2013-04-05 05:35:00
12:55 AM,32.9,26.2,76,30.17,10.0,NNE,6.9,-,N/A,,Mostly Cloudy,30,2013-04-05 05:55:00
1:15 AM,32.5,26.1,77,30.17,10.0,NNE,9.2,-,N/A,,Overcast,30,2013-04-05 06:15:00
1:35 AM,32.2,25.7,77,30.18,10.0,NNE,8.1,-,N/A,,Overcast,20,2013-04-05 06:35:00
1:55 AM,32.0,25.5,77,30.17,10.0,NNE,8.1,-,N/A,,Overcast,30,2013-04-05 06:55:00
2:15 AM,32.0,24.8,75,30.18,10.0,NNE,8.1,-,N/A,,Mostly Cloudy,30,2013-04-05 07:15:00
2:35 AM,32.0,24.8,75,30.18,10.0,NE,8.1,-,N/A,,Overcast,40,2013-04-05 07:35:00
2:55 AM,31.8,24.8,75,30.18,10.0,NNE,8.1,-,N/A,,Overcast,30,2013-04-05 07:55:00
3:15 AM,31.1,24.6,77,30.18,10.0,NNE,8.1,-,N/A,,Overcast,30,2013-04-05 08:15:00
3:35 AM,30.7,24.8,79,30.18,10.0,NE,6.9,-,N/A,,Scattered Clouds,40,2013-04-05 08:35:00
3:55 AM,30.6,25.2,80,30.18,10.0,NE,4.6,-,N/A,,Clear,40,2013-04-05 08:55:00
4:15 AM,30.2,25.3,82,30.17,10.0,Calm,Calm,-,N/A,,Clear,0,2013-04-05 09:15:00
4:35 AM,30.2,25.3,82,30.17,10.0,NE,6.9,-,N/A,,Clear,50,2013-04-05 09:35:00
4:55 AM,30.9,25.3,80,30.17,10.0,NE,5.8,-,N/A,,Clear,50,2013-04-05 09:55:00
5:15 AM,31.1,25.2,79,30.18,10.0,ENE,4.6,-,N/A,,Scattered Clouds,60,2013-04-05 10:15:00
5:35 AM,31.1,25.3,79,30.17,10.0,ENE,4.6,-,N/A,,Scattered Clouds,60,2013-04-05 10:35:00
5:55 AM,30.7,25.3,80,30.17,10.0,ENE,3.5,-,N/A,,Mostly Cloudy,70,2013-04-05 10:55:00
6:15 AM,30.7,25.3,80,30.18,10.0,Calm,Calm,-,N/A,,Overcast,0,2013-04-05 11:15:00
6:55 AM,30.9,25.7,81,30.18,10.0,East,3.5,-,N/A,,Overcast,80,2013-04-05 11:55:00
7:35 AM,31.5,26.1,80,30.18,10.0,East,5.8,-,N/A,,Overcast,90,2013-04-05 12:35:00
7:55 AM,31.6,26.4,81,30.17,10.0,East,6.9,-,N/A,,Overcast,80,2013-04-05 12:55:00
8:15 AM,32.0,26.6,80,30.17,10.0,East,8.1,-,N/A,,Scattered Clouds,90,2013-04-05 13:15:00
8:35 AM,32.0,26.6,80,30.17,10.0,East,8.1,-,N/A,,Scattered Clouds,100,2013-04-05 13:35:00
8:55 AM,32.9,26.6,78,30.18,10.0,East,5.8,-,N/A,,Scattered Clouds,100,2013-04-05 13:55:00
9:15 AM,34.2,26.4,73,30.18,10.0,East,6.9,-,N/A,,Scattered Clouds,100,2013-04-05 14:15:00
9:35 AM,34.3,26.1,72,30.16,10.0,ESE,5.8,-,N/A,,Mostly Cloudy,110,2013-04-05 14:35:00
9:55 AM,35.1,25.9,69,30.16,10.0,ESE,8.1,-,N/A,,Overcast,120,2013-04-05 14:55:00
10:15 AM,35.8,26.2,68,30.16,10.0,SE,10.4,-,N/A,,Overcast,140,2013-04-05 15:15:00
10:35 AM,36.5,26.2,66,30.15,10.0,SE,10.4,-,N/A,,Overcast,140,2013-04-05 15:35:00
10:55 AM,37.9,26.8,64,30.14,10.0,SE,11.5,-,N/A,,Mostly Cloudy,130,2013-04-05 15:55:00
11:15 AM,39.6,27.0,61,30.13,10.0,SSE,13.8,-,N/A,,Mostly Cloudy,150,2013-04-05 16:15:00
11:35 AM,41.2,27.5,58,30.11,10.0,SE,13.8,-,N/A,,Scattered Clouds,140,2013-04-05 16:35:00
11:55 AM,41.9,27.3,56,30.09,10.0,SE,15.0,20.7,N/A,,Scattered Clouds,140,2013-04-05 16:55:00
12:15 PM,43.3,26.8,52,30.08,10.0,SE,17.3,23.0,N/A,,Scattered Clouds,140,2013-04-05 17:15:00
12:35 PM,44.6,27.5,51,30.08,10.0,SE,13.8,19.6,N/A,,Mostly Cloudy,140,2013-04-05 17:35:00
12:55 PM,45.7,26.6,47,30.07,10.0,SE,13.8,17.3,N/A,,Overcast,140,2013-04-05 17:55:00
1:15 PM,48.0,25.3,41,30.05,10.0,SE,13.8,-,N/A,,Overcast,130,2013-04-05 18:15:00
1:35 PM,49.5,25.2,39,30.04,10.0,SE,16.1,21.9,N/A,,Mostly Cloudy,140,2013-04-05 18:35:00
1:55 PM,49.8,25.9,39,30.03,10.0,SE,15.0,23.0,N/A,,Mostly Cloudy,140,2013-04-05 18:55:00
2:15 PM,50.0,24.6,37,30.01,10.0,SE,17.3,24.2,N/A,,Mostly Cloudy,140,2013-04-05 19:15:00
2:35 PM,50.7,24.4,36,29.99,10.0,SE,17.3,23.0,N/A,,Mostly Cloudy,130,2013-04-05 19:35:00
2:55 PM,53.1,25.2,34,29.96,10.0,SE,17.3,25.3,N/A,,Mostly Cloudy,130,2013-04-05 19:55:00
3:15 PM,54.0,25.9,34,29.95,10.0,SE,19.6,26.5,N/A,,Mostly Cloudy,140,2013-04-05 20:15:00
3:35 PM,57.4,27.3,32,29.92,10.0,SE,20.7,26.5,N/A,,Scattered Clouds,140,2013-04-05 20:35:00
3:55 PM,57.7,26.8,31,29.90,10.0,SSE,24.2,29.9,N/A,,Clear,150,2013-04-05 20:55:00
4:15 PM,58.1,26.8,30,29.89,10.0,SSE,25.3,29.9,N/A,,Clear,150,2013-04-05 21:15:00
4:35 PM,57.6,27.3,31,29.87,10.0,SE,21.9,29.9,N/A,,Clear,140,2013-04-05 21:35:00
4:55 PM,57.9,28.6,33,29.86,10.0,SSE,16.1,26.5,N/A,,Clear,150,2013-04-05 21:55:00
5:15 PM,58.8,30.2,34,29.85,10.0,SE,17.3,25.3,N/A,,Clear,140,2013-04-05 22:15:00
5:35 PM,58.5,32.0,37,29.84,10.0,SE,17.3,25.3,N/A,,Clear,140,2013-04-05 22:35:00
5:55 PM,59.0,33.1,38,29.83,10.0,SE,13.8,23.0,N/A,,Clear,140,2013-04-05 22:55:00
6:15 PM,58.1,33.8,40,29.83,10.0,SE,16.1,23.0,N/A,,Clear,140,2013-04-05 23:15:00
6:35 PM,57.6,34.7,42,29.82,10.0,SE,15.0,-,N/A,,Clear,140,2013-04-05 23:35:00
6:55 PM,56.8,35.6,45,29.81,10.0,SE,12.7,-,N/A,,Clear,140,2013-04-05 23:55:00
7:15 PM,55.6,35.8,47,29.80,10.0,SE,13.8,-,N/A,,Clear,140,2013-04-06 00:15:00
7:35 PM,54.9,35.8,49,29.78,10.0,SE,12.7,20.7,N/A,,Clear,130,2013-04-06 00:35:00
7:55 PM,54.1,35.6,50,29.78,10.0,ESE,10.4,16.1,N/A,,Clear,120,2013-04-06 00:55:00
8:15 PM,52.3,35.6,53,29.77,10.0,ESE,11.5,-,N/A,,Clear,120,2013-04-06 01:15:00
8:35 PM,51.8,35.6,54,29.76,10.0,ESE,12.7,17.3,N/A,,Clear,120,2013-04-06 01:35:00
8:55 PM,51.4,35.6,55,29.76,10.0,ESE,11.5,-,N/A,,Clear,120,2013-04-06 01:55:00
9:15 PM,51.3,35.6,55,29.76,10.0,ESE,12.7,-,N/A,,Clear,120,2013-04-06 02:15:00
9:35 PM,51.3,35.6,55,29.76,10.0,ESE,11.5,17.3,N/A,,Clear,120,2013-04-06 02:35:00
9:55 PM,51.3,35.6,55,29.76,10.0,ESE,12.7,18.4,N/A,,Clear,120,2013-04-06 02:55:00
10:15 PM,50.5,35.8,57,29.75,10.0,SE,11.5,-,N/A,,Clear,130,2013-04-06 03:15:00
10:35 PM,50.0,36.5,60,29.74,10.0,SE,10.4,-,N/A,,Clear,130,2013-04-06 03:35:00
10:55 PM,50.2,37.0,61,29.73,10.0,SE,12.7,-,N/A,,Clear,130,2013-04-06 03:55:00
11:15 PM,51.4,37.8,60,29.72,10.0,SE,16.1,-,N/A,,Clear,140,2013-04-06 04:15:00
11:35 PM,51.8,37.9,59,29.71,10.0,SSE,15.0,21.9,N/A,,Clear,150,2013-04-06 04:35:00
11:55 PM,51.8,37.9,59,29.71,10.0,SE,17.3,-,N/A,,Clear,140,2013-04-06 04:55:00